This is the latest recevied weather packets stored in our database for station/object SQ6RR-12. If no packets are shown the sender has not sent any weather packets the latest 1 day(s).
| Time | Temp. | Humidity | Pressure | Rain* | Wind** | Luminosity | Snow |
|---|---|---|---|---|---|---|---|
| 1777975224 | 26.11° C | 35% | 1008.7 hPa | 0 mm | 0 m/s | - | - |
| 1777974952 | 26.11° C | 34% | 1008.7 hPa | 0 mm | 0 m/s | - | - |
| 1777974665 | 26.11° C | 37% | 1008.7 hPa | 0 mm | 0 m/s | - | - |
| 1777974400 | 26.11° C | 38% | 1008.7 hPa | 0 mm | 0 m/s | - | - |
| 1777974104 | 25.56° C | 37% | 1008.8 hPa | 0 mm | 0 m/s | - | - |
| 1777973827 | 25.56° C | 39% | 1008.9 hPa | 0 mm | 0 m/s | - | - |
| 1777973567 | 25.56° C | 38% | 1008.9 hPa | 0 mm | 0 m/s | - | - |
| 1777973284 | 25.56° C | 36% | 1008.9 hPa | 0 mm | 0 m/s | - | - |
| 1777973011 | 26.11° C | 36% | 1008.9 hPa | 0 mm | 0 m/s | - | - |
| 1777972735 | 25.56° C | 37% | 1009 hPa | 0 mm | 0 m/s | - | - |
| 1777972468 | 26.11° C | 35% | 1009 hPa | 0 mm | 0 m/s | - | - |
| 1777972182 | 25° C | 37% | 1009.1 hPa | 0 mm | 0 m/s | - | - |
| 1777971913 | 25.56° C | 38% | 1009.1 hPa | 0 mm | 0 m/s | - | - |
| 1777971642 | 25° C | 38% | 1009.1 hPa | 0 mm | 0 m/s | - | - |
| 1777971366 | 24.44° C | 40% | 1009.1 hPa | 0 mm | 0 m/s | - | - |
| 1777971097 | 24.44° C | 41% | 1009.2 hPa | 0 mm | 0 m/s | - | - |
| 1777970807 | 23.89° C | 40% | 1009.3 hPa | 0 mm | 0 m/s | - | - |
| 1777970547 | 23.89° C | 40% | 1009.3 hPa | 0 mm | 0 m/s | - | - |
| 1777970287 | 24.44° C | 40% | 1009.4 hPa | 0 mm | 0 m/s | - | - |
| 1777970002 | 24.44° C | 39% | 1009.4 hPa | 0 mm | 0 m/s | - | - |
| 1777969722 | 23.89° C | 41% | 1009.4 hPa | 0 mm | 0 m/s | - | - |
| 1777969462 | 23.33° C | 42% | 1009.5 hPa | 0 mm | 0 m/s | - | - |
| 1777969212 | 22.78° C | 43% | 1009.6 hPa | 0 mm | 0 m/s | - | - |
| 1777968946 | 22.78° C | 42% | 1009.6 hPa | 0 mm | 0 m/s | - | - |
| 1777968672 | 21.67° C | 47% | 1009.8 hPa | 0 mm | 0 m/s | - | - |
* Rain latest hour (hover to see other rain measurements)
** Current wind speed in m/s (hover to see current wind gust speed)